sat.trackr.live / text

‹ back to catalog

STARLINK-30821

NORAD 58181 · 2023-167G

PAYLOAD ACTIVE UNKNOWN

§ Identity

Operator
Country
US
Launch date
2023-10-30
Launch site
AFETR
Launch vehicle
Mass (kg)
RCS (m²)

Purposes: comms

External: N2YO · Heavens-Above · Gunter

§ Orbital elements

Epoch: 2026-09-19T23:57:41.518080Z

Period
94.27 min
Inclination
43.0032°
Eccentricity
0.0001071
Mean motion
15.27573146 rev/d
Perigee alt
482.3 km
Apogee alt
483.8 km
Semi-major
6,861.2 km
B*
-1.0543e-4
RAAN
125.9116°
Arg perigee
266.8414°
Mean anomaly
93.2315°
Rev number
16,069

§ Raw data

STARLINK-308211 58181U 23167G   26262.99839720 -.00003161  00000+0 -10543-3 0  99952 58181  43.0032 125.9116 0001071 266.8414  93.2315 15.27573146160698

JSON: /api/v1/satellites/58181 · /tle

For live sub-satellite position, see the globe view (requires WebGL).

§ Visibility from observer

Set your observer location to see the next 7 days of passes ≥ 10°. The values pass through the URL so the page stays shareable.

No JS? Fill the form by hand. The geolocation button needs JavaScript.